Gennadii Vladimirovich Borisov (Nauchnij,クリミア)の通報によると、11月8日UT、Nauchnij近郊の
MARGO天文台の0.50-m f/1.9 アストログラフでに得た画像から彗星を発見した。
この天体は約4" の拡散したコマが見え、p.a. 290-310°にわたって4"-8"の広い尾がある、0'.25の円形
範囲で測定した全G光度は19.8等であった。
小惑星センターのNEOCP webpageに公表後、L. Buzzi (Varese, イタリア)によると、11月11.14-11.16日UT、
0.84-m f/3.5 反射望遠鏡で得た60-秒ラ画像45枚のスタックから(A. AlettiとBuzziが測定)、集光した
6"のコマが見え、p.a. 約330゜に伸びている。
彗星機能の報告は次のとおり、
OC Date Reporter Coma Tail PA Comet Date
(T/P) Reported
L51 2024-11-08 G. Borisov 3".5 4" 290 P 2024-11-08.17
U94 2024-11-08 H. Sato 10" T 2024-11-10.04
L51 2024-11-09 G. Borisov 4" 8" 290 T 2024-11-09.15
204 2024-11-11 A. Aletti 6" T 2024-11-12.96
発見位置は次のとおり(PCCP gb00777)、
2024 UT R.A. (2000) Decl. Mag. Observer
Nov. 8.04936 10 54 44.76 +64 41 21.1 19.3 Borisov
8.05997 10 54 45.66 +64 41 18.9 19.8 "
8.07064 10 54 46.68 +64 41 16.9 19.8 "
8.12198 10 54 51.30 +64 41 08.4 19.0 "
8.12861 10 54 51.91 +64 41 07.3 19.5 "
8.13527 10 54 52.47 +64 41 06.3 19.7 "
MPCの楕円軌道要素、位置推算表は次のとおり、
Orbital elements:
C/2024 V1 (Borisov)
Epoch 2024 Oct. 17.0 TT = JDT 2460600.5
T 2025 Apr. 4.29535 TT Rudenko
q 2.3144104 (2000.0) P Q
z +0.0042317 Peri. 168.84354 -0.77418314 -0.46405995
+/-0.0015592 Node 328.14033 +0.49963204 -0.03052317
e 0.9902061 Incl. 54.63642 +0.38859785 -0.88527775
From 45 observations 2024 Oct. 28-Nov. 11, mean residual 0".3.
Ephemeris:
Date TT R. A. (2000) Decl. Delta r Elong. Phase m1
2024 10 14 10 05 05.6 +66 27 11 2.9558 2.9887 82.2 19.3 21.9
...
2024 10 29 10 37 29.1 +65 17 28 2.7430 2.8912 88.4 20.1 21.6
...
2024 11 06 10 51 31.4 +64 47 49 2.6289 2.8410 92.0 20.4 21.4
...
2024 11 12 11 00 28.7 +64 30 20 2.5433 2.8044 94.7 20.6 21.3
2024 11 13 11 01 50.1 +64 27 51 2.5291 2.7983 95.2 20.6 21.3
2024 11 14 11 03 09.0 +64 25 31 2.5149 2.7923 95.7 20.6 21.3
...
2024 11 20 11 10 10.2 +64 14 19 2.4299 2.7568 98.6 20.8 21.1
...
2024 11 28 11 17 01.1 +64 07 35 2.3176 2.7110 102.7 20.8 21.0
...
2024 12 13 11 20 30.5 +64 19 41 2.1137 2.6300 110.8 20.5 20.6
(MPEC 2024-V184、CBET 5474)